Hauptseite
METAR-TAF:

METAR-TAF

Flughäfen :

Cascavel, Paraná, Brasilien

Breite: 25-00-08S, Länge: 53-30-07W, Höhe: 754 m

Beobachtung

Neuester Wetterbericht von vor 4 Stunden und 59 Minuten, um 15:00 UTC
Wind 10 kt aus Ost/Nordost
Temperatur 23°C
Luftfeuchtigkeit 57%
Luftdruck 1018 hPa
Sichtweite 10 km oder mehr
keine Wolken unter 1500 m und keine Kumulonimbus oder Gewitterwolken

METAR: SBCA 211500Z 06010KT CAVOK 23/14 Q1018

Zeit: 17:59 (19:59 UTC)


TAF: fehlend

Wetterbeobachtungen und Prognosen von mehr als 4000 Flughäfen (METAR und TAF Bericht).

Die verfügbaren Stationen werden durch gelbe und rote Markierungen auf der Karte dargestellt.

Führen Sie die Maus auf sie, um den Namen der Station zu sehen.

Darauf klicken, um die Beobachtung von Wetterbeobachtungen und Prognosen zu sehen.

Um die Karte zu ändern : klicken Sie auf den grünen Tasten mit einem schwarzen Kreuz Zum Vergrößern, auf den grünen Button mit einem Gedankenstrich zu verkleinern, oder auf die grünen Pfeile für benachbarte Karten.


METAR-TAF: